| time (UTC) | temp C | wind direction | speed KPH | gust KPH | rain 1hr cm | rain 24hr cm | rain mn cm | humidity % | barometer mb |
| 20260904211433 | 24 | 123 | 0.0 | 0.0 | 0.00 | 0.00 | 0.00 | 78 | 1014.8 |
| 20260904210933 | 24 | 123 | 0.0 | 0.0 | 0.00 | 0.00 | 0.00 | 79 | 1014.9 |
| 20260904210433 | 24 | 122 | 0.0 | 0.0 | 0.00 | 0.00 | 0.00 | 78 | 1014.9 |
| 20260904205433 | 25 | 122 | 0.0 | 1.6 | 0.00 | 0.00 | 0.00 | 77 | 1015.0 |
| 20260904203932 | 25 | 122 | 1.6 | 3.2 | 0.00 | 0.00 | 0.00 | 77 | 1015.1 |
| 20260904203433 | 25 | 122 | 3.2 | 4.8 | 0.00 | 0.00 | 0.00 | 76 | 1015.1 |
| 20260904202949 | 25 | 122 | 3.2 | 4.8 | 0.00 | 0.00 | 0.00 | 76 | 1015.1 |
| 20260904202433 | 25 | 122 | 1.6 | 3.2 | 0.00 | 0.00 | 0.00 | 76 | 1015.2 |
| 20260904201933 | 25 | 106 | 1.6 | 4.8 | 0.00 | 0.00 | 0.00 | 76 | 1015.2 |
| 20260904201433 | 25 | 123 | 3.2 | 4.8 | 0.00 | 0.00 | 0.00 | 75 | 1015.2 |
| 20260904200433 | 26 | 121 | 0.0 | 3.2 | 0.00 | 0.00 | 0.00 | 74 | 1015.2 |
| 20260904195433 | 26 | 121 | 0.0 | 0.0 | 0.00 | 0.00 | 0.00 | 75 | 1015.2 |
| 20260904194436 | 26 | 121 | 0.0 | 0.0 | 0.00 | 0.00 | 0.00 | 75 | 1015.2 |
| 20260904193933 | 26 | 121 | 0.0 | 0.0 | 0.00 | 0.00 | 0.00 | 75 | 1015.2 |
| 20260904193434 | 26 | 121 | 0.0 | 0.0 | 0.00 | 0.00 | 0.00 | 74 | 1015.2 |
| 20260904192932 | 26 | 120 | 0.0 | 0.0 | 0.00 | 0.00 | 0.00 | 74 | 1015.2 |
| 20260904192433 | 26 | 120 | 0.0 | 0.0 | 0.00 | 0.00 | 0.00 | 73 | 1015.2 |
| 20260904191438 | 26 | 120 | 0.0 | 0.0 | 0.00 | 0.00 | 0.00 | 72 | 1015.1 |
| 20260904190433 | 26 | 120 | 0.0 | 0.0 | 0.00 | 0.00 | 0.00 | 71 | 1015.1 |
| 20260904185940 | 26 | 120 | 0.0 | 0.0 | 0.00 | 0.00 | 0.00 | 70 | 1015.1 |
| 20260904185434 | 26 | 120 | 0.0 | 0.0 | 0.00 | 0.00 | 0.00 | 71 | 1015.0 |
| 20260904184932 | 27 | 120 | 0.0 | 0.0 | 0.00 | 0.00 | 0.00 | 71 | 1015.0 |
| 20260904183933 | 27 | 120 | 0.0 | 0.0 | 0.00 | 0.00 | 0.00 | 71 | 1015.0 |
| 20260904183436 | 27 | 120 | 0.0 | 0.0 | 0.00 | 0.00 | 0.00 | 71 | 1015.0 |
| 20260904182932 | 27 | 120 | 0.0 | 0.0 | 0.00 | 0.00 | 0.00 | 71 | 1014.9 |
| 20260904182433 | 27 | 120 | 0.0 | 0.0 | 0.00 | 0.00 | 0.00 | 70 | 1014.9 |
| 20260904180933 | 27 | 120 | 0.0 | 0.0 | 0.00 | 0.00 | 0.00 | 72 | 1014.7 |
| 20260904180433 | 27 | 120 | 0.0 | 0.0 | 0.00 | 0.00 | 0.00 | 71 | 1014.7 |
| 20260904175433 | 28 | 120 | 1.6 | 4.8 | 0.00 | 0.00 | 0.00 | 69 | 1014.5 |
| 20260904174433 | 29 | 96 | 1.6 | 3.2 | 0.00 | 0.00 | 0.00 | 68 | 1014.4 |
| 20260904173432 | 29 | 96 | 1.6 | 3.2 | 0.00 | 0.00 | 0.00 | 68 | 1014.5 |
| 20260904171434 | 30 | 66 | 3.2 | 4.8 | 0.00 | 0.00 | 0.00 | 61 | 1014.5 |
| 20260904170934 | 30 | 67 | 1.6 | 3.2 | 0.00 | 0.00 | 0.00 | 62 | 1014.5 |
| 20260904165933 | 31 | 67 | 1.6 | 4.8 | 0.00 | 0.00 | 0.00 | 58 | 1014.5 |
| 20260904165433 | 32 | 63 | 1.6 | 3.2 | 0.00 | 0.00 | 0.00 | 55 | 1014.5 |
| 20260904164932 | 32 | 71 | 3.2 | 4.8 | 0.00 | 0.00 | 0.00 | 53 | 1014.6 |
| 20260904164432 | 32 | 73 | 3.2 | 4.8 | 0.00 | 0.00 | 0.00 | 55 | 1014.6 |
| 20260904163432 | 32 | 78 | 1.6 | 4.8 | 0.00 | 0.00 | 0.00 | 55 | 1014.7 |
| 20260904162433 | 32 | 90 | 3.2 | 4.8 | 0.00 | 0.00 | 0.00 | 53 | 1014.8 |
| 20260904161932 | 32 | 88 | 3.2 | 8.0 | 0.00 | 0.00 | 0.00 | 53 | 1014.8 |
| 20260904161432 | 32 | 98 | 3.2 | 4.8 | 0.00 | 0.00 | 0.00 | 53 | 1014.8 |
| 20260904160435 | 32 | 106 | 3.2 | 8.0 | 0.00 | 0.00 | 0.00 | 52 | 1014.8 |
| 20260904155432 | 33 | 79 | 3.2 | 8.0 | 0.00 | 0.00 | 0.00 | 51 | 1014.9 |
| 20260904154932 | 33 | 78 | 4.8 | 8.0 | 0.00 | 0.00 | 0.00 | 52 | 1014.9 |
| 20260904153932 | 33 | 109 | 4.8 | 8.0 | 0.00 | 0.00 | 0.00 | 51 | 1015.0 |
| 20260904153433 | 33 | 96 | 4.8 | 8.0 | 0.00 | 0.00 | 0.00 | 49 | 1015.0 |
| 20260904152433 | 33 | 90 | 3.2 | 4.8 | 0.00 | 0.00 | 0.00 | 46 | 1015.0 |
| 20260904151932 | 33 | 121 | 3.2 | 8.0 | 0.00 | 0.00 | 0.00 | 50 | 1015.1 |
| 20260904150934 | 33 | 91 | 3.2 | 8.0 | 0.00 | 0.00 | 0.00 | 50 | 1015.1 |
| 20260904150432 | 33 | 94 | 4.8 | 9.7 | 0.00 | 0.00 | 0.00 | 49 | 1015.1 |
| 20260904145932 | 33 | 90 | 6.4 | 9.7 | 0.00 | 0.00 | 0.00 | 51 | 1015.1 |
| 20260904144931 | 33 | 112 | 3.2 | 9.7 | 0.00 | 0.00 | 0.00 | 50 | 1015.2 |
| 20260904144431 | 33 | 92 | 4.8 | 9.7 | 0.00 | 0.00 | 0.00 | 49 | 1015.2 |
| 20260904143432 | 33 | 76 | 8.0 | 11.3 | 0.00 | 0.00 | 0.00 | 49 | 1015.3 |
| 20260904142932 | 33 | 88 | 4.8 | 11.3 | 0.00 | 0.00 | 0.00 | 50 | 1015.4 |
| 20260904141933 | 33 | 88 | 3.2 | 8.0 | 0.00 | 0.00 | 0.00 | 47 | 1015.5 |
| 20260904140933 | 33 | 110 | 8.0 | 11.3 | 0.00 | 0.00 | 0.00 | 49 | 1015.5 |
| 20260904140432 | 33 | 111 | 4.8 | 12.9 | 0.00 | 0.00 | 0.00 | 51 | 1015.6 |
| 20260904134933 | 33 | 146 | 4.8 | 8.0 | 0.00 | 0.00 | 0.00 | 49 | 1015.8 |
| 20260904134434 | 33 | 96 | 3.2 | 8.0 | 0.00 | 0.00 | 0.00 | 49 | 1015.8 |
| 20260904133932 | 33 | 115 | 4.8 | 8.0 | 0.00 | 0.00 | 0.00 | 49 | 1015.9 |
| 20260904133432 | 33 | 98 | 4.8 | 9.7 | 0.00 | 0.00 | 0.00 | 52 | 1016.0 |
| 20260904132932 | 32 | 143 | 8.0 | 12.9 | 0.00 | 0.00 | 0.00 | 50 | 1016.0 |
| 20260904131932 | 32 | 71 | 8.0 | 14.5 | 0.00 | 0.00 | 0.00 | 52 | 1016.1 |
| 20260904131432 | 33 | 42 | 9.7 | 14.5 | 0.00 | 0.00 | 0.00 | 53 | 1016.2 |
| 20260904130932 | 33 | 71 | 8.0 | 14.5 | 0.00 | 0.00 | 0.00 | 52 | 1016.2 |
| 20260904130434 | 33 | 61 | 8.0 | 12.9 | 0.00 | 0.00 | 0.00 | 52 | 1016.2 |
| 20260904125932 | 33 | 83 | 4.8 | 11.3 | 0.00 | 0.00 | 0.00 | 52 | 1016.3 |
| 20260904125433 | 32 | 99 | 4.8 | 11.3 | 0.00 | 0.00 | 0.00 | 51 | 1016.4 |
| 20260904124932 | 32 | 172 | 3.2 | 8.0 | 0.00 | 0.00 | 0.00 | 52 | 1016.4 |
| 20260904124432 | 32 | 135 | 8.0 | 14.5 | 0.00 | 0.00 | 0.00 | 52 | 1016.5 |
| 20260904123932 | 32 | 89 | 6.4 | 12.9 | 0.00 | 0.00 | 0.00 | 54 | 1016.6 |
| 20260904123431 | 32 | 93 | 6.4 | 12.9 | 0.00 | 0.00 | 0.00 | 54 | 1016.6 |
| 20260904121932 | 32 | 113 | 9.7 | 16.1 | 0.00 | 0.00 | 0.00 | 54 | 1016.7 |
| 20260904121432 | 32 | 87 | 8.0 | 16.1 | 0.00 | 0.00 | 0.00 | 54 | 1016.7 |
| 20260904115443 | 32 | 213 | 3.2 | 4.8 | 0.00 | 0.00 | 0.00 | 55 | 1016.8 |
| 20260904114932 | 32 | 49 | 1.6 | 11.3 | 0.00 | 0.00 | 0.00 | 58 | 1016.9 |
| 20260904112933 | 31 | 187 | 4.8 | 12.9 | 0.00 | 0.00 | 0.00 | 57 | 1017.1 |
| 20260904112439 | 31 | 123 | 4.8 | 12.9 | 0.00 | 0.00 | 0.00 | 57 | 1017.1 |
| 20260904111931 | 31 | 68 | 4.8 | 12.9 | 0.00 | 0.00 | 0.00 | 57 | 1017.2 |
| 20260904111432 | 31 | 94 | 3.2 | 9.7 | 0.00 | 0.00 | 0.00 | 59 | 1017.3 |
| 20260904110934 | 30 | 91 | 4.8 | 11.3 | 0.00 | 0.00 | 0.00 | 58 | 1017.4 |
| 20260904110432 | 31 | 102 | 8.0 | 12.9 | 0.00 | 0.00 | 0.00 | 60 | 1017.4 |
| 20260904105931 | 31 | 125 | 8.0 | 11.3 | 0.00 | 0.00 | 0.00 | 59 | 1017.4 |
| 20260904105433 | 31 | 105 | 6.4 | 12.9 | 0.00 | 0.00 | 0.00 | 59 | 1017.5 |
| 20260904104931 | 31 | 54 | 4.8 | 9.7 | 0.00 | 0.00 | 0.00 | 62 | 1017.6 |
| 20260904104431 | 30 | 84 | 8.0 | 11.3 | 0.00 | 0.00 | 0.00 | 61 | 1017.7 |
| 20260904103431 | 30 | 85 | 3.2 | 9.7 | 0.00 | 0.00 | 0.00 | 59 | 1017.8 |
| 20260904102934 | 30 | 89 | 3.2 | 11.3 | 0.00 | 0.00 | 0.00 | 60 | 1017.8 |
| 20260904101931 | 30 | 93 | 4.8 | 9.7 | 0.00 | 0.00 | 0.00 | 59 | 1017.8 |
| 20260904100936 | 30 | 140 | 3.2 | 8.0 | 0.00 | 0.00 | 0.00 | 59 | 1017.9 |
| 20260904100431 | 30 | 64 | 3.2 | 11.3 | 0.00 | 0.00 | 0.00 | 59 | 1017.9 |
| 20260904095932 | 30 | 49 | 3.2 | 8.0 | 0.00 | 0.00 | 0.00 | 59 | 1017.9 |
| 20260904095431 | 29 | 103 | 4.8 | 8.0 | 0.00 | 0.00 | 0.00 | 60 | 1018.0 |
| 20260904094948 | 29 | 101 | 3.2 | 9.7 | 0.00 | 0.00 | 0.00 | 60 | 1018.0 |
| 20260904094431 | 29 | 60 | 4.8 | 8.0 | 0.00 | 0.00 | 0.00 | 65 | 1018.0 |
| 20260904093932 | 28 | 122 | 4.8 | 9.7 | 0.00 | 0.00 | 0.00 | 63 | 1018.1 |
| 20260904092931 | 28 | 78 | 6.4 | 9.7 | 0.00 | 0.00 | 0.00 | 64 | 1018.1 |
| 20260904092438 | 28 | 75 | 3.2 | 8.0 | 0.00 | 0.00 | 0.00 | 66 | 1018.1 |
| 20260904091431 | 28 | 162 | 3.2 | 4.8 | 0.00 | 0.00 | 0.00 | 67 | 1018.2 |
| 20260904090431 | 28 | 123 | 4.8 | 8.0 | 0.00 | 0.00 | 0.00 | 67 | 1018.3 |
| 20260904085931 | 27 | 152 | 3.2 | 11.3 | 0.00 | 0.00 | 0.00 | 68 | 1018.3 |
| 20260904085432 | 27 | 79 | 3.2 | 4.8 | 0.00 | 0.00 | 0.00 | 69 | 1018.3 |
| 20260904084931 | 27 | 143 | 3.2 | 8.0 | 0.00 | 0.00 | 0.00 | 68 | 1018.2 |
| 20260904084432 | 27 | 92 | 3.2 | 9.7 | 0.00 | 0.00 | 0.00 | 67 | 1018.3 |
| 20260904083931 | 27 | 114 | 4.8 | 11.3 | 0.00 | 0.00 | 0.00 | 68 | 1018.3 |
| 20260904083431 | 27 | 74 | 3.2 | 8.0 | 0.00 | 0.00 | 0.00 | 69 | 1018.3 |
| 20260904082933 | 27 | 111 | 4.8 | 11.3 | 0.00 | 0.00 | 0.00 | 70 | 1018.3 |
| 20260904082436 | 26 | 89 | 4.8 | 9.7 | 0.00 | 0.00 | 0.00 | 69 | 1018.3 |
| 20260904080431 | 26 | 90 | 4.8 | 9.7 | 0.00 | 0.00 | 0.00 | 74 | 1018.2 |
| 20260904075931 | 26 | 82 | 3.2 | 9.7 | 0.00 | 0.00 | 0.00 | 75 | 1018.2 |
| 20260904074947 | 25 | 64 | 3.2 | 8.0 | 0.00 | 0.00 | 0.00 | 75 | 1018.2 |
| 20260904074436 | 25 | 107 | 3.2 | 12.9 | 0.00 | 0.00 | 0.00 | 74 | 1018.2 |
| 20260904073931 | 25 | 94 | 8.0 | 11.3 | 0.00 | 0.00 | 0.00 | 75 | 1018.1 |
| 20260904073431 | 25 | 115 | 3.2 | 4.8 | 0.00 | 0.00 | 0.00 | 78 | 1018.0 |
| 20260904072930 | 25 | 78 | 3.2 | 8.0 | 0.00 | 0.00 | 0.00 | 78 | 1018.0 |
| 20260904072449 | 25 | 71 | 4.8 | 9.7 | 0.00 | 0.00 | 0.00 | 78 | 1018.0 |
| 20260904070931 | 23 | 128 | 1.6 | 4.8 | 0.00 | 0.00 | 0.00 | 80 | 1017.9 |
| 20260904065930 | 23 | 92 | 4.8 | 8.0 | 0.00 | 0.00 | 0.00 | 82 | 1017.9 |
| 20260904064930 | 22 | 115 | 4.8 | 8.0 | 0.00 | 0.00 | 0.00 | 82 | 1017.9 |
| 20260904064430 | 22 | 118 | 3.2 | 8.0 | 0.00 | 0.00 | 0.00 | 83 | 1018.0 |
| 20260904063931 | 22 | 63 | 4.8 | 8.0 | 0.00 | 0.00 | 0.00 | 83 | 1018.0 |
| 20260904063431 | 22 | 81 | 3.2 | 8.0 | 0.00 | 0.00 | 0.00 | 83 | 1018.0 |
| 20260904062931 | 22 | 75 | 4.8 | 8.0 | 0.00 | 0.00 | 0.00 | 83 | 1017.9 |
| 20260904062430 | 22 | 84 | 3.2 | 4.8 | 0.00 | 0.00 | 0.00 | 83 | 1017.9 |
| 20260904061930 | 22 | 62 | 3.2 | 4.8 | 0.00 | 0.00 | 0.00 | 83 | 1017.9 |
| 20260904061431 | 22 | 30 | 1.6 | 4.8 | 0.00 | 0.00 | 0.00 | 85 | 1018.0 |
| 20260904060931 | 21 | 11 | 1.6 | 4.8 | 0.00 | 0.00 | 0.00 | 86 | 1017.9 |
| 20260904060430 | 21 | 56 | 1.6 | 3.2 | 0.00 | 0.00 | 0.00 | 86 | 1017.9 |
| 20260904055931 | 21 | 57 | 3.2 | 4.8 | 0.00 | 0.00 | 0.00 | 87 | 1017.9 |
| 20260904055431 | 21 | 53 | 0.0 | 4.8 | 0.00 | 0.00 | 0.00 | 87 | 1017.8 |
| 20260904054930 | 21 | 53 | 1.6 | 3.2 | 0.00 | 0.00 | 0.00 | 88 | 1017.8 |
| 20260904054431 | 20 | 53 | 0.0 | 3.2 | 0.00 | 0.00 | 0.00 | 88 | 1017.7 |
| 20260904053931 | 20 | 53 | 1.6 | 3.2 | 0.00 | 0.00 | 0.00 | 89 | 1017.7 |
| 20260904053430 | 20 | 53 | 1.6 | 3.2 | 0.00 | 0.00 | 0.00 | 90 | 1017.7 |
| 20260904052930 | 20 | 53 | 1.6 | 3.2 | 0.00 | 0.00 | 0.00 | 91 | 1017.7 |
| 20260904052430 | 20 | 5 | 0.0 | 0.0 | 0.00 | 0.00 | 0.00 | 91 | 1017.7 |
| 20260904051930 | 20 | 5 | 0.0 | 3.2 | 0.00 | 0.00 | 0.00 | 91 | 1017.6 |
| 20260904051430 | 19 | 5 | 1.6 | 3.2 | 0.00 | 0.00 | 0.00 | 92 | 1017.6 |
| 20260904050932 | 19 | 5 | 1.6 | 4.8 | 0.00 | 0.00 | 0.00 | 92 | 1017.5 |
| 20260904050432 | 19 | 25 | 0.0 | 4.8 | 0.00 | 0.00 | 0.00 | 92 | 1017.5 |
| 20260904045431 | 19 | 28 | 0.0 | 3.2 | 0.00 | 0.00 | 0.00 | 92 | 1017.5 |
| 20260904044930 | 18 | 34 | 1.6 | 3.2 | 0.00 | 0.00 | 0.00 | 92 | 1017.4 |
| 20260904044430 | 19 | 297 | 0.0 | 1.6 | 0.00 | 0.00 | 0.00 | 92 | 1017.4 |
| 20260904043931 | 19 | 337 | 0.0 | 1.6 | 0.00 | 0.00 | 0.00 | 92 | 1017.5 |
| 20260904043430 | 19 | 33 | 1.6 | 3.2 | 0.00 | 0.00 | 0.00 | 92 | 1017.5 |
| 20260904042930 | 19 | 30 | 1.6 | 4.8 | 0.00 | 0.00 | 0.00 | 92 | 1017.4 |
| 20260904041930 | 19 | 30 | 0.0 | 0.0 | 0.00 | 0.00 | 0.00 | 92 | 1017.4 |
| 20260904041430 | 19 | 30 | 0.0 | 0.0 | 0.00 | 0.00 | 0.00 | 92 | 1017.4 |
| 20260904040931 | 19 | 30 | 0.0 | 1.6 | 0.00 | 0.00 | 0.00 | 92 | 1017.4 |
| 20260904035930 | 19 | 30 | 0.0 | 0.0 | 0.00 | 0.00 | 0.00 | 92 | 1017.3 |
| 20260904035430 | 19 | 30 | 0.0 | 0.0 | 0.00 | 0.00 | 0.00 | 92 | 1017.3 |
| 20260904034930 | 19 | 30 | 0.0 | 0.0 | 0.00 | 0.00 | 0.00 | 91 | 1017.3 |
| 20260904033430 | 20 | 30 | 0.0 | 0.0 | 0.00 | 0.00 | 0.00 | 91 | 1017.2 |
| 20260904032930 | 20 | 30 | 0.0 | 0.0 | 0.00 | 0.00 | 0.00 | 92 | 1017.1 |
| 20260904032430 | 19 | 30 | 0.0 | 0.0 | 0.00 | 0.00 | 0.00 | 91 | 1017.1 |
| 20260904031930 | 20 | 30 | 0.0 | 0.0 | 0.00 | 0.00 | 0.00 | 91 | 1017.2 |
| 20260904030930 | 20 | 30 | 0.0 | 0.0 | 0.00 | 0.00 | 0.00 | 91 | 1017.2 |
| 20260904025930 | 20 | 30 | 0.0 | 0.0 | 0.00 | 0.00 | 0.00 | 90 | 1017.2 |
| 20260904024930 | 20 | 30 | 0.0 | 0.0 | 0.00 | 0.00 | 0.00 | 90 | 1017.0 |
| 20260904024430 | 20 | 30 | 0.0 | 0.0 | 0.00 | 0.00 | 0.00 | 90 | 1017.0 |
| 20260904023930 | 20 | 30 | 0.0 | 0.0 | 0.00 | 0.00 | 0.00 | 90 | 1017.1 |
| 20260904023429 | 20 | 30 | 0.0 | 0.0 | 0.00 | 0.00 | 0.00 | 90 | 1017.0 |
| 20260904022930 | 20 | 30 | 0.0 | 0.0 | 0.00 | 0.00 | 0.00 | 90 | 1017.0 |
| 20260904022430 | 20 | 30 | 0.0 | 0.0 | 0.00 | 0.00 | 0.00 | 89 | 1017.0 |
| 20260904021931 | 20 | 30 | 0.0 | 0.0 | 0.00 | 0.00 | 0.00 | 90 | 1017.0 |
| 20260904021430 | 20 | 30 | 0.0 | 0.0 | 0.00 | 0.00 | 0.00 | 90 | 1017.1 |
| 20260904020931 | 20 | 30 | 0.0 | 0.0 | 0.00 | 0.00 | 0.00 | 89 | 1017.1 |
| 20260904020430 | 20 | 30 | 0.0 | 0.0 | 0.00 | 0.00 | 0.00 | 89 | 1016.9 |
| 20260904015930 | 20 | 30 | 0.0 | 0.0 | 0.00 | 0.00 | 0.00 | 88 | 1017.0 |
| 20260904014430 | 21 | 30 | 0.0 | 3.2 | 0.00 | 0.00 | 0.00 | 87 | 1016.9 |
| 20260904013929 | 21 | 30 | 0.0 | 0.0 | 0.00 | 0.00 | 0.00 | 87 | 1016.9 |
| 20260904013431 | 21 | 30 | 0.0 | 1.6 | 0.00 | 0.00 | 0.00 | 86 | 1016.9 |
| 20260904012931 | 21 | 30 | 0.0 | 1.6 | 0.00 | 0.00 | 0.00 | 86 | 1016.9 |
| 20260904011930 | 21 | 30 | 0.0 | 3.2 | 0.00 | 0.00 | 0.00 | 85 | 1016.9 |
| 20260904011429 | 21 | 30 | 0.0 | 3.2 | 0.00 | 0.00 | 0.00 | 85 | 1016.9 |
| 20260904010930 | 21 | 30 | 3.2 | 4.8 | 0.00 | 0.00 | 0.00 | 85 | 1016.8 |
| 20260904005930 | 21 | 30 | 1.6 | 3.2 | 0.00 | 0.00 | 0.00 | 85 | 1016.9 |
| 20260904005429 | 21 | 30 | 1.6 | 1.6 | 0.00 | 0.00 | 0.00 | 86 | 1016.9 |
| 20260904004931 | 21 | 30 | 1.6 | 3.2 | 0.00 | 0.00 | 0.00 | 86 | 1016.8 |
| 20260904004430 | 21 | 58 | 0.0 | 4.8 | 0.00 | 0.00 | 0.00 | 86 | 1016.9 |
| 20260904003930 | 21 | 108 | 0.0 | 0.0 | 0.00 | 0.00 | 0.00 | 86 | 1016.8 |
| 20260904003429 | 21 | 108 | 0.0 | 0.0 | 0.00 | 0.00 | 0.00 | 86 | 1016.8 |
| 20260904002930 | 21 | 108 | 0.0 | 0.0 | 0.00 | 0.00 | 0.00 | 86 | 1016.9 |
| 20260904002430 | 21 | 108 | 1.6 | 4.8 | 0.00 | 0.00 | 0.00 | 85 | 1016.9 |
| 20260904001432 | 22 | 108 | 1.6 | 3.2 | 0.00 | 0.00 | 0.00 | 85 | 1016.9 |
| 20260904000931 | 22 | 108 | 1.6 | 3.2 | 0.00 | 0.00 | 0.00 | 85 | 1017.0 |
| 20260904000430 | 21 | 108 | 0.0 | 0.0 | 0.00 | 0.00 | 0.00 | 86 | 1017.0 |
| 20260903235930 | 21 | 108 | 0.0 | 3.2 | 0.00 | 0.00 | 0.00 | 87 | 1017.0 |
| 20260903235429 | 21 | 108 | 1.6 | 4.8 | 0.00 | 0.00 | 0.00 | 88 | 1017.1 |
| 20260903234430 | 21 | 108 | 1.6 | 4.8 | 0.00 | 0.00 | 0.00 | 89 | 1017.1 |
| 20260903233929 | 21 | 108 | 3.2 | 4.8 | 0.00 | 0.00 | 0.00 | 89 | 1017.1 |
| 20260903233429 | 21 | 108 | 3.2 | 4.8 | 0.00 | 0.00 | 0.00 | 89 | 1017.2 |
| 20260903232930 | 21 | 107 | 4.8 | 4.8 | 0.00 | 0.00 | 0.00 | 90 | 1017.1 |
| 20260903232429 | 21 | 88 | 4.8 | 8.0 | 0.00 | 0.00 | 0.00 | 89 | 1017.2 |
| 20260903231929 | 21 | 88 | 3.2 | 4.8 | 0.00 | 0.00 | 0.00 | 88 | 1017.2 |
| 20260903231429 | 21 | 88 | 3.2 | 11.3 | 0.00 | 0.00 | 0.00 | 86 | 1017.2 |
| 20260903230929 | 22 | 90 | 3.2 | 9.7 | 0.00 | 0.00 | 0.00 | 83 | 1017.2 |
| 20260903230429 | 22 | 0 | 1.6 | 1.6 | 0.00 | 0.00 | 0.00 | 83 | 1017.2 |
| 20260903225929 | 22 | 0 | 1.6 | 4.8 | 0.00 | 0.00 | 0.00 | 82 | 1017.2 |
| 20260903225429 | 22 | 5 | 1.6 | 3.2 | 0.00 | 0.00 | 0.00 | 82 | 1017.1 |
| 20260903224930 | 22 | 349 | 3.2 | 4.8 | 0.00 | 0.00 | 0.00 | 82 | 1017.1 |
| 20260903224429 | 22 | 324 | 1.6 | 3.2 | 0.00 | 0.00 | 0.00 | 82 | 1017.1 |
| 20260903223929 | 22 | 312 | 3.2 | 4.8 | 0.00 | 0.00 | 0.00 | 83 | 1017.0 |
| 20260903223429 | 22 | 314 | 3.2 | 4.8 | 0.00 | 0.00 | 0.00 | 83 | 1017.0 |
| 20260903222929 | 22 | 349 | 0.0 | 3.2 | 0.00 | 0.00 | 0.00 | 82 | 1017.0 |
| 20260903222429 | 22 | 349 | 0.0 | 0.0 | 0.00 | 0.00 | 0.00 | 82 | 1016.9 |
| 20260903221429 | 22 | 349 | 0.0 | 0.0 | 0.00 | 0.00 | 0.00 | 82 | 1016.9 |
| 20260903220929 | 22 | 349 | 0.0 | 1.6 | 0.00 | 0.00 | 0.00 | 83 | 1016.9 |
| 20260903220429 | 22 | 349 | 0.0 | 1.6 | 0.00 | 0.00 | 0.00 | 83 | 1016.9 |
| 20260903215930 | 22 | 349 | 0.0 | 0.0 | 0.00 | 0.00 | 0.00 | 82 | 1016.8 |
| 20260903214930 | 23 | 349 | 0.0 | 0.0 | 0.00 | 0.00 | 0.00 | 81 | 1016.9 |
| 20260903214429 | 23 | 349 | 0.0 | 1.6 | 0.00 | 0.00 | 0.00 | 81 | 1016.9 |
| 20260903213928 | 23 | 349 | 0.0 | 0.0 | 0.00 | 0.00 | 0.00 | 80 | 1016.8 |
| 20260903213429 | 23 | 349 | 0.0 | 0.0 | 0.00 | 0.00 | 0.00 | 80 | 1016.8 |
| 20260903212429 | 23 | 349 | 0.0 | 1.6 | 0.00 | 0.00 | 0.00 | 79 | 1016.7 |